Time,TemperatureF,DewpointF,PressureIn,WindDirection,WindDirectionDegrees,WindSpeedMPH,WindSpeedGustMPH,Humidity,HourlyPrecipIn,Conditions,Clouds,dailyrainin,SoftwareType,DateUTC
2013-03-25 00:02:00,45.0,43.0,29.56,NW,322,5.0,13.0,94,0.00,,,1.55,,2013-03-25 04:02:00,
2013-03-25 00:12:00,45.0,43.0,29.56,NW,322,5.0,13.0,94,0.00,,,1.55,,2013-03-25 04:12:00,
2013-03-25 00:22:00,45.0,43.0,29.55,NW,316,5.0,11.0,94,0.00,,,1.55,,2013-03-25 04:22:00,
2013-03-25 00:33:00,44.0,42.0,29.56,NE,42,0.0,5.0,94,0.00,,,1.55,,2013-03-25 04:33:00,
2013-03-25 00:43:00,44.0,42.0,29.56,NE,42,0.0,5.0,94,0.00,,,1.55,,2013-03-25 04:43:00,
2013-03-25 00:52:00,44.0,42.0,29.55,NNW,336,2.0,5.0,94,0.00,,,1.55,,2013-03-25 04:52:00,
2013-03-25 01:03:00,44.0,42.0,29.55,NNW,346,1.0,5.0,94,0.00,,,1.55,,2013-03-25 05:03:00,
2013-03-25 01:12:00,44.0,42.0,29.55,NNW,346,1.0,5.0,94,0.00,,,1.55,,2013-03-25 05:12:00,
2013-03-25 01:22:00,44.0,42.0,29.59,WSW,248,3.0,7.0,94,0.00,,,1.55,,2013-03-25 05:22:00,
2013-03-25 01:32:00,44.0,42.0,29.57,WNW,288,0.0,4.0,94,0.00,,,1.55,,2013-03-25 05:32:00,
2013-03-25 01:42:00,44.0,42.0,29.57,WNW,288,0.0,4.0,94,0.00,,,1.55,,2013-03-25 05:42:00,
2013-03-25 01:52:00,45.0,43.0,29.57,WNW,288,0.0,4.0,94,0.00,,,1.55,,2013-03-25 05:52:00,
2013-03-25 02:02:00,45.0,43.0,29.57,WNW,289,0.0,2.0,94,0.00,,,1.55,,2013-03-25 06:02:00,
2013-03-25 02:12:00,45.0,43.0,29.57,WNW,289,0.0,2.0,94,0.00,,,1.55,,2013-03-25 06:12:00,
2013-03-25 02:22:00,45.0,43.0,29.59,WSW,256,1.0,4.0,94,0.00,,,1.55,,2013-03-25 06:22:00,
2013-03-25 02:32:00,45.0,43.0,29.59,West,277,1.0,5.0,94,0.00,,,1.55,,2013-03-25 06:32:00,
2013-03-25 02:42:00,45.0,43.0,29.59,West,277,1.0,5.0,94,0.00,,,1.55,,2013-03-25 06:42:00,
2013-03-25 02:53:00,45.0,44.0,29.59,SW,228,0.0,6.0,95,0.00,,,1.55,,2013-03-25 06:53:00,
2013-03-25 03:02:00,45.0,44.0,29.59,WNW,291,0.0,5.0,95,0.00,,,1.55,,2013-03-25 07:02:00,
2013-03-25 03:12:00,45.0,44.0,29.59,WNW,291,0.0,5.0,95,0.00,,,1.55,,2013-03-25 07:12:00,
2013-03-25 03:22:00,45.0,44.0,29.59,WSW,250,3.0,6.0,95,0.00,,,1.55,,2013-03-25 07:22:00,
2013-03-25 03:32:00,45.0,44.0,29.59,SSW,193,1.0,7.0,95,0.00,,,1.55,,2013-03-25 07:32:00,
2013-03-25 03:42:00,45.0,44.0,29.59,SSW,193,1.0,7.0,95,0.00,,,1.55,,2013-03-25 07:42:00,
2013-03-25 03:52:00,45.0,44.0,29.60,WSW,245,4.0,11.0,95,0.00,,,1.55,,2013-03-25 07:52:00,
2013-03-25 04:03:00,45.0,44.0,29.58,WSW,245,0.0,9.0,95,0.00,,,1.55,,2013-03-25 08:03:00,
2013-03-25 04:12:00,45.0,44.0,29.58,WSW,245,0.0,9.0,95,0.00,,,1.55,,2013-03-25 08:12:00,
2013-03-25 04:23:00,45.0,44.0,29.59,SW,220,2.0,8.0,95,0.00,,,1.55,,2013-03-25 08:23:00,
2013-03-25 04:32:00,45.0,44.0,29.59,WSW,252,2.0,9.0,95,0.00,,,1.55,,2013-03-25 08:32:00,
2013-03-25 04:43:00,45.0,44.0,29.59,WSW,252,2.0,9.0,95,0.00,,,1.55,,2013-03-25 08:43:00,
2013-03-25 04:52:00,45.0,44.0,29.59,SSW,213,3.0,9.0,95,0.00,,,1.55,,2013-03-25 08:52:00,
2013-03-25 05:02:00,45.0,44.0,29.59,SW,214,3.0,11.0,95,0.00,,,1.55,,2013-03-25 09:02:00,
2013-03-25 05:12:00,45.0,44.0,29.59,SW,214,3.0,11.0,95,0.00,,,1.55,,2013-03-25 09:12:00,
2013-03-25 05:22:00,45.0,44.0,29.60,WSW,257,3.0,6.0,95,0.00,,,1.55,,2013-03-25 09:22:00,
2013-03-25 05:33:00,45.0,44.0,29.60,WSW,254,3.0,12.0,95,0.00,,,1.48,,2013-03-25 09:33:00,
2013-03-25 05:43:00,45.0,44.0,29.60,WSW,254,3.0,12.0,95,0.00,,,1.48,,2013-03-25 09:43:00,
2013-03-25 05:53:00,45.0,43.0,29.60,WSW,242,5.0,10.0,94,0.00,,,1.48,,2013-03-25 09:53:00,
2013-03-25 06:03:00,46.0,44.0,29.60,WSW,254,4.0,9.0,94,0.00,,,1.48,,2013-03-25 10:03:00,
2013-03-25 06:12:00,46.0,44.0,29.60,WSW,254,4.0,9.0,94,0.00,,,1.48,,2013-03-25 10:12:00,
2013-03-25 06:22:00,46.0,44.0,29.60,WSW,245,4.0,13.0,93,0.00,,,1.48,,2013-03-25 10:22:00,
2013-03-25 06:33:00,46.0,44.0,29.60,WSW,256,5.0,11.0,93,0.00,,,1.48,,2013-03-25 10:33:00,
2013-03-25 06:42:00,46.0,44.0,29.60,WSW,256,5.0,11.0,93,0.00,,,1.48,,2013-03-25 10:42:00,
2013-03-25 06:54:00,46.0,44.0,29.61,West,259,5.0,12.0,92,0.00,,,1.48,,2013-03-25 10:54:00,
2013-03-25 07:03:00,46.0,44.0,29.61,WSW,251,4.0,11.0,91,0.00,,,1.48,,2013-03-25 11:03:00,
2013-03-25 07:12:00,45.0,43.0,29.62,WSW,255,7.0,15.0,91,0.00,,,1.48,,2013-03-25 11:12:00,
2013-03-25 07:23:00,45.0,43.0,29.62,WSW,255,7.0,15.0,91,0.00,,,1.48,,2013-03-25 11:23:00,
2013-03-25 07:32:00,45.0,42.0,29.62,West,261,6.0,18.0,89,0.00,,,1.30,,2013-03-25 11:32:00,
2013-03-25 07:42:00,45.0,42.0,29.62,West,261,6.0,18.0,89,0.00,,,1.30,,2013-03-25 11:42:00,
2013-03-25 07:53:00,45.0,42.0,29.63,SW,219,8.0,17.0,89,0.00,,,1.30,,2013-03-25 11:53:00,
2013-03-25 08:02:00,45.0,41.0,29.63,West,269,5.0,18.0,85,0.00,,,1.30,,2013-03-25 12:02:00,
2013-03-25 08:13:00,45.0,40.0,29.64,WSW,257,7.0,21.0,81,0.00,,,1.30,,2013-03-25 12:13:00,
2013-03-25 08:23:00,45.0,40.0,29.64,WSW,257,7.0,21.0,81,0.00,,,1.30,,2013-03-25 12:23:00,
2013-03-25 08:32:00,45.0,37.0,29.64,West,262,9.0,26.0,73,0.00,,,1.00,,2013-03-25 12:32:00,
2013-03-25 08:42:00,45.0,37.0,29.64,West,262,9.0,26.0,73,0.00,,,1.00,,2013-03-25 12:42:00,
2013-03-25 08:53:00,45.0,37.0,29.65,West,259,5.0,24.0,73,0.00,,,1.00,,2013-03-25 12:53:00,
2013-03-25 09:02:00,46.0,36.0,29.65,WSW,246,9.0,28.0,68,0.01,,,1.01,,2013-03-25 13:02:00,
2013-03-25 09:13:00,46.0,36.0,29.65,WSW,246,9.0,28.0,68,0.01,,,1.01,,2013-03-25 13:13:00,
2013-03-25 09:23:00,46.0,36.0,29.66,West,275,9.0,19.0,67,0.01,,,1.01,,2013-03-25 13:23:00,
2013-03-25 09:32:00,46.0,35.0,29.66,West,260,13.0,25.0,65,0.01,,,0.62,,2013-03-25 13:32:00,
2013-03-25 09:43:00,46.0,35.0,29.66,West,260,13.0,25.0,65,0.01,,,0.62,,2013-03-25 13:43:00,
2013-03-25 09:52:00,47.0,35.0,29.66,West,273,12.0,24.0,64,0.01,,,0.62,,2013-03-25 13:52:00,
2013-03-25 10:03:00,47.0,35.0,29.66,WNW,290,12.0,24.0,63,0.00,,,0.62,,2013-03-25 14:03:00,
2013-03-25 10:12:00,47.0,35.0,29.66,WNW,290,12.0,24.0,63,0.00,,,0.62,,2013-03-25 14:12:00,
2013-03-25 10:23:00,48.0,36.0,29.66,WSW,248,10.0,25.0,62,0.00,,,0.62,,2013-03-25 14:23:00,
2013-03-25 10:32:00,48.0,34.0,29.66,West,269,11.0,32.0,59,0.00,,,0.14,,2013-03-25 14:32:00,
2013-03-25 10:42:00,48.0,34.0,29.66,West,269,11.0,32.0,59,0.00,,,0.14,,2013-03-25 14:42:00,
2013-03-25 10:53:00,48.0,34.0,29.66,West,267,14.0,25.0,57,0.00,,,0.14,,2013-03-25 14:53:00,
2013-03-25 11:03:00,49.0,33.0,29.66,West,267,12.0,29.0,54,0.00,,,0.14,,2013-03-25 15:03:00,
2013-03-25 11:13:00,49.0,33.0,29.66,West,267,12.0,29.0,54,0.00,,,0.14,,2013-03-25 15:13:00,
2013-03-25 11:23:00,49.0,33.0,29.67,West,267,14.0,24.0,53,0.00,,,0.14,,2013-03-25 15:23:00,
2013-03-25 11:33:00,49.0,33.0,29.66,West,267,9.0,23.0,54,0.00,,,0.02,,2013-03-25 15:33:00,
2013-03-25 11:42:00,49.0,33.0,29.66,West,267,9.0,23.0,54,0.00,,,0.02,,2013-03-25 15:42:00,
2013-03-25 11:53:00,50.0,33.0,29.66,SW,219,11.0,22.0,52,0.00,,,0.02,,2013-03-25 15:53:00,
2013-03-25 12:03:00,50.0,32.0,29.66,SW,231,9.0,21.0,50,0.00,,,0.02,,2013-03-25 16:03:00,
2013-03-25 12:12:00,50.0,32.0,29.66,SW,231,9.0,21.0,50,0.00,,,0.02,,2013-03-25 16:12:00,
2013-03-25 12:23:00,50.0,32.0,29.66,SW,231,9.0,21.0,50,0.00,,,0.02,,2013-03-25 16:23:00,
2013-03-25 12:33:00,51.0,33.0,29.67,WSW,255,13.0,31.0,50,0.00,,,0.01,,2013-03-25 16:33:00,
2013-03-25 12:43:00,51.0,33.0,29.67,WSW,255,13.0,31.0,50,0.00,,,0.01,,2013-03-25 16:43:00,
2013-03-25 12:53:00,50.0,33.0,29.67,West,260,13.0,23.0,51,0.00,,,0.01,,2013-03-25 16:53:00,
2013-03-25 13:01:00,52.0,33.0,29.66,West,259,9.0,24.0,48,0.00,,,0.01,,2013-03-25 17:01:00,
2013-03-25 13:03:00,51.0,33.0,29.67,WSW,255,13.0,26.0,49,0.00,,,0.01,,2013-03-25 17:03:00,
2013-03-25 13:12:00,51.0,33.0,29.67,WSW,255,13.0,26.0,49,0.00,,,0.01,,2013-03-25 17:12:00,
2013-03-25 13:23:00,52.0,33.0,29.66,West,259,9.0,24.0,48,0.00,,,0.01,,2013-03-25 17:23:00,
2013-03-25 13:33:00,52.0,33.0,29.66,West,259,9.0,24.0,48,0.00,,,0.01,,2013-03-25 17:33:00,
2013-03-25 13:42:00,52.0,33.0,29.66,West,259,9.0,24.0,48,0.00,,,0.01,,2013-03-25 17:42:00,
2013-03-25 13:53:00,52.0,33.0,29.66,West,259,9.0,24.0,48,0.00,,,0.01,,2013-03-25 17:53:00,